Location: Campestrin
(46.4667°N, 11.7167°E)
Time: 09:46:36
(UTC+00:00)

S3M - Pass Details

Date: 18 April 2021
Orbit: 949 x 1004 km, 83.0° (Epoch: 06 May)

Event Time Altitude Azimuth Distance (km) Brightness Sun altitude
Exits shadow 22:08:54 81° 42° (NE) 1,022 4.0 -30.6°
Drops below altitude 10° 22:15:02 10° 10° (N) 2,789 7.1 -31.0°
Sets 22:17:34 0° 10° (N) 3,742 8.0 -31.1°
